sat.trackr.live / text

‹ back to catalog

WASEDA-SAT-ZERO-II

NORAD 68797 · 2026-088F

PAYLOAD ACTIVE UNKNOWN

§ Identity

Operator
Country
JPN
Launch date
2026-04-23
Launch site
RLLB
Launch vehicle
Mass (kg)
RCS (m²)

External: N2YO · Heavens-Above · Gunter

§ Orbital elements

Epoch: 2026-09-19T15:26:45.070080Z

Period
95.39 min
Inclination
97.5183°
Eccentricity
0.0016405
Mean motion
15.09553759 rev/d
Perigee alt
526.2 km
Apogee alt
548.9 km
Semi-major
6,915.7 km
B*
2.6074e-4
RAAN
50.0502°
Arg perigee
112.7189°
Mean anomaly
247.5777°
Rev number
2,254

§ Raw data

WASEDA-SAT-ZERO-II1 68797U 26088F   26262.64357720  .00004134  00000+0  26074-3 0  99962 68797  97.5183  50.0502 0016405 112.7189 247.5777 15.09553759 22540

JSON: /api/v1/satellites/68797 · /tle

For live sub-satellite position, see the globe view (requires WebGL).

§ Visibility from observer

Set your observer location to see the next 7 days of passes ≥ 10°. The values pass through the URL so the page stays shareable.

No JS? Fill the form by hand. The geolocation button needs JavaScript.